This is the latest recevied weather packets stored in our database for station/object WA7CUG. If no packets are shown the sender has not sent any weather packets the latest 1 day(s).
| Time | Temp. | Humidity | Pressure | Rain* | Wind** | Luminosity | Snow |
|---|---|---|---|---|---|---|---|
| 1778010672 | 26.11° C | 31% | 1012.4 hPa | 0 mm | 0.45 m/s, 180° | 693 W/m² | - |
| 1778010368 | 26.67° C | 32% | 1012.4 hPa | 0 mm | 0.89 m/s, 88° | 690 W/m² | - |
| 1778010063 | 26.11° C | 35% | 1012.7 hPa | 0 mm | 0.45 m/s, 182° | 688 W/m² | - |
| 1778009761 | 25.56° C | 33% | 1012.6 hPa | 0 mm | 0.45 m/s, 167° | 687 W/m² | - |
| 1778009458 | 26.11° C | 34% | 1012.7 hPa | 0 mm | 0.45 m/s, 36° | 683 W/m² | - |
| 1778009156 | 26.11° C | 33% | 1012.8 hPa | 0 mm | 0.89 m/s, 148° | 681 W/m² | - |
| 1778008853 | 25.56° C | 33% | 1012.7 hPa | 0 mm | 1.34 m/s, 99° | 678 W/m² | - |
| 1778008552 | 25.56° C | 31% | 1012.9 hPa | 0 mm | 1.34 m/s, 128° | 675 W/m² | - |
| 1778008249 | 25.56° C | 34% | 1012.7 hPa | 0 mm | 0.45 m/s, 143° | 671 W/m² | - |
| 1778007944 | 25° C | 33% | 1012.8 hPa | 0 mm | 1.34 m/s, 91° | 667 W/m² | - |
| 1778007641 | 25° C | 32% | 1013 hPa | 0 mm | 1.34 m/s, 73° | 660 W/m² | - |
| 1778007337 | 25° C | 35% | 1013.1 hPa | 0 mm | 0.89 m/s, 178° | 653 W/m² | - |
| 1778007034 | 25.56° C | 36% | 1013.1 hPa | 0 mm | 0.45 m/s, 156° | 648 W/m² | - |
| 1778006731 | 25° C | 36% | 1012.9 hPa | 0 mm | 0.45 m/s, 120° | 642 W/m² | - |
| 1778006428 | 24.44° C | 33% | 1013 hPa | 0 mm | 0 m/s | 636 W/m² | - |
| 1778006124 | 24.44° C | 36% | 1013.2 hPa | 0 mm | 0.45 m/s, 146° | 630 W/m² | - |
| 1778005821 | 24.44° C | 37% | 1013.2 hPa | 0 mm | 0 m/s | 625 W/m² | - |
| 1778005512 | 24.44° C | 34% | 1013 hPa | 0 mm | 0 m/s | 617 W/m² | - |
| 1778005209 | 23.89° C | 35% | 1013.1 hPa | 0 mm | 0.89 m/s, 149° | 611 W/m² | - |
| 1778004905 | 23.89° C | 38% | 1013.1 hPa | 0 mm | 1.34 m/s, 116° | 603 W/m² | - |
| 1778004603 | 23.89° C | 37% | 1013.3 hPa | 0 mm | 1.34 m/s, 72° | 595 W/m² | - |
| 1778004298 | 23.33° C | 37% | 1013.1 hPa | 0 mm | 0.89 m/s, 135° | 588 W/m² | - |
| 1778003996 | 23.33° C | 38% | 1013.2 hPa | 0 mm | 0 m/s | 580 W/m² | - |
| 1778003691 | 23.33° C | 37% | 1013.3 hPa | 0 mm | 1.34 m/s, 32° | 573 W/m² | - |
| 1778003388 | 23.33° C | 40% | 1013.3 hPa | 0 mm | 0.45 m/s, 65° | 565 W/m² | - |
* Rain latest hour (hover to see other rain measurements)
** Current wind speed in m/s (hover to see current wind gust speed)